Regional Weather Roundup
Issued by NWS

Home | Current Version | Previous Version | Graphics & Text | Print | Product List | Glossary On
Versions: 1 2 3 4 5 6 7 8 9 10 11 12 13 14 15 16 17 18 19 20 21 22 23 24 25 26 27 28 29 30 31 32 33 34 35 36 37 38 39 40 41 42 43 44 45 46 47 48 49 50
000
ASUS43 KBIS 301659
RWRND

NORTH DAKOTA REGIONAL WEATHER ROUNDUP
NATIONAL WEATHER SERVICE BISMARCK ND
1200 PM CDT TUE SEP 30 2014

NOTE: "FAIR" INDICATES FEW OR NO CLOUDS BELOW 12,000 FEET WITH NO
SIGNIFICANT WEATHER AND/OR OBSTRUCTIONS TO VISIBILITY.


NDZ001>003-009>011-017-301800-
NORTHWEST NORTH DAKOTA

CITY           SKY/WX    TMP DP  RH WIND       PRES   REMARKS
WILLISTON      LGT RAIN  55  52  89 E7        29.62F
MINOT          CLOUDY    49  47  93 E18       29.68F FOG
$$

NDZ018>021-031>035-040>046-301800-
SOUTHWEST NORTH DAKOTA

CITY           SKY/WX    TMP DP  RH WIND       PRES   REMARKS
BISMARCK       CLOUDY    52  50  93 E20       29.64F
DICKINSON      CLOUDY    51  50  96 E14       29.58F FOG
GARRISON         N/A     51  50  96 E16       29.65F
HETTINGER ARPT FOG       52  51  97 E17       29.55F VSB 1/4
$$

NDZ004>008-012>016-024-026-027-054-301800-
NORTHEAST NORTH DAKOTA

CITY           SKY/WX    TMP DP  RH WIND       PRES   REMARKS
GRAND FORKS    PTSUNNY   54  44  69 SE18G25   29.85F
DEVILS LAKE    CLOUDY    48  39  71 SE22      29.77F
$$

NDZ022-023-025-028>030-036>039-047>053-301800-
SOUTHEAST NORTH DAKOTA

CITY           SKY/WX    TMP DP  RH WIND       PRES   REMARKS
FARGO          MOSUNNY   55  43  63 SE15G25   29.86F
$$



USA.gov is the U.S. government's official web portal to all federal, state and local government web resources and services.